KLM151 EHAM-LGAV

Flight info

Callsign KLM151
Flight time N/A
Altitude 35000
Route EDUPO Z739 MISGO DCT DOJOH DCT DODEN DCT NEGIX DCT DINKU M867 XERUM DCT BAVAX DCT RADIZ DCT EVAXI DCT DARZA DCT PINDO DCT PIKOS UL607 XORKI
Aircraft B77W/H-SDE1E2E3FGHIJ2J3J4J5M1RWXY/LB1D1

Departure

Time 2026-04-18 10:28
Airport Amsterdam Airport Schiphol (EHAM)

Arrival

Time N/A
Airport Athens Eleftherios Venizelos International Airport (LGAV)
Time Latitude Longitude Altitude Speed Heading
2026-04-18 10:04 52.31402 4.77050 10 ft 0 kts 302°
2026-04-18 10:15 52.31395 4.77067 9 ft 4 kts 301°
2026-04-18 10:15 52.31384 4.77096 9 ft 0 kts 300°
2026-04-18 10:23 52.31380 4.77073 9 ft 3 kts 234°
2026-04-18 10:23 52.31341 4.77083 7 ft 9 kts 156°
2026-04-18 10:23 52.31276 4.77069 6 ft 12 kts 208°
2026-04-18 10:23 52.31177 4.76966 4 ft 21 kts 213°
2026-04-18 10:24 52.31080 4.76989 4 ft 5 kts 98°
2026-04-18 10:24 52.31085 4.77092 7 ft 14 kts 94°
2026-04-18 10:24 52.31080 4.77273 12 ft 18 kts 92°
2026-04-18 10:24 52.31056 4.77466 15 ft 18 kts 139°
2026-04-18 10:25 52.30934 4.77481 18 ft 18 kts 184°
2026-04-18 10:25 52.30808 4.77465 15 ft 18 kts 184°
2026-04-18 10:25 52.30684 4.77460 16 ft 18 kts 170°
2026-04-18 10:25 52.30570 4.77543 19 ft 18 kts 152°
2026-04-18 10:26 52.30552 4.77558 19 ft 5 kts 152°
2026-04-18 10:26 52.30454 4.77637 24 ft 16 kts 158°
2026-04-18 10:26 52.30397 4.77586 25 ft 11 kts 238°
2026-04-18 10:26 52.30392 4.77573 23 ft 2 kts 237°
2026-04-18 10:27 52.30313 4.77370 19 ft 51 kts 238°
2026-04-18 10:27 52.29999 4.76549 22 ft 119 kts 238°
2026-04-18 10:27 52.29457 4.75129 22 ft 172 kts 239°
2026-04-18 10:27 52.28819 4.73376 411 ft 184 kts 239°
2026-04-18 10:28 52.28119 4.71606 1128 ft 183 kts 238°
2026-04-18 10:28 52.27401 4.69934 1857 ft 185 kts 230°
2026-04-18 10:28 52.26289 4.68689 2174 ft 212 kts 198°
2026-04-18 10:28 52.24692 4.68687 2466 ft 249 kts 165°
2026-04-18 10:29 52.23210 4.70134 3209 ft 264 kts 138°
2026-04-18 10:29 52.22210 4.72655 3868 ft 272 kts 121°
2026-04-18 10:29 52.21283 4.75406 4444 ft 279 kts 124°
2026-04-18 10:29 52.20304 4.78138 5352 ft 278 kts 124°
2026-04-18 10:30 52.19309 4.80906 6211 ft 285 kts 123°
2026-04-18 10:30 52.18307 4.83701 7022 ft 284 kts 123°
2026-04-18 10:30 52.17495 4.86606 7598 ft 291 kts 103°
2026-04-18 10:30 52.17606 4.89922 8139 ft 298 kts 74°
2026-04-18 10:31 52.18250 4.93179 8699 ft 303 kts 73°
2026-04-18 10:31 52.18894 4.96474 9410 ft 305 kts 73°
2026-04-18 10:31 52.19528 4.99754 10081 ft 309 kts 73°
2026-04-18 10:31 52.20175 5.03133 10613 ft 316 kts 73°
2026-04-18 10:32 52.20836 5.06610 11109 ft 325 kts 73°
2026-04-18 10:32 52.21511 5.10177 11745 ft 331 kts 73°
2026-04-18 10:32 52.21961 5.12566 12232 ft 333 kts 74°
2026-04-18 10:32 52.22849 5.17311 13273 ft 338 kts 74°
2026-04-18 10:33 52.23536 5.21010 14051 ft 341 kts 76°
2026-04-18 10:33 52.23763 5.24840 14541 ft 341 kts 103°
2026-04-18 10:33 52.22966 5.28349 15159 ft 335 kts 125°
2026-04-18 10:33 52.21548 5.31260 15835 ft 329 kts 143°
2026-04-18 10:34 52.19666 5.33323 16522 ft 324 kts 161°
2026-04-18 10:34 52.17538 5.34313 17228 ft 318 kts 179°
2026-04-18 10:34 52.15587 5.34235 17865 ft 314 kts 195°
2026-04-18 10:34 52.13486 5.33042 18605 ft 311 kts 213°
2026-04-18 10:35 52.11796 5.30865 19264 ft 310 kts 230°
2026-04-18 10:35 52.10635 5.27916 19932 ft 311 kts 247°
2026-04-18 10:35 52.10216 5.25691 20369 ft 314 kts 258°
2026-04-18 10:35 52.10142 5.22115 21051 ft 317 kts 270°
2026-04-18 10:36 52.10435 5.17360 22001 ft 320 kts 273°
2026-04-18 10:36 52.10567 5.14938 27050 ft 333 kts 271°
2026-04-18 10:36 52.10886 5.11159 27543 ft 336 kts 274°
2026-04-18 10:36 52.11278 5.07334 27781 ft 350 kts 274°
2026-04-18 10:37 52.11697 5.03328 27891 ft 365 kts 274°
2026-04-18 10:37 52.12124 4.99224 28001 ft 378 kts 274°
2026-04-18 10:37 52.12566 4.94922 28109 ft 392 kts 274°
2026-04-18 10:37 52.13020 4.90459 28244 ft 404 kts 274°
2026-04-18 10:38 52.13490 4.85866 28363 ft 416 kts 274°
2026-04-18 10:38 52.13975 4.81146 28503 ft 426 kts 274°
2026-04-18 10:38 52.14463 4.76390 28746 ft 432 kts 274°
2026-04-18 10:38 52.14963 4.71536 29165 ft 434 kts 274°
2026-04-18 10:39 52.15465 4.66677 29634 ft 434 kts 274°
2026-04-18 10:39 52.15972 4.61806 30073 ft 435 kts 274°
2026-04-18 10:39 52.16481 4.56931 30479 ft 435 kts 274°
2026-04-18 10:39 52.16985 4.52123 30856 ft 435 kts 274°
2026-04-18 10:40 52.17495 4.47244 31224 ft 435 kts 274°
2026-04-18 10:40 52.17996 4.42403 31583 ft 435 kts 274°
2026-04-18 10:40 52.18426 4.37536 31920 ft 434 kts 272°
2026-04-18 10:40 52.18644 4.32633 32250 ft 430 kts 265°
2026-04-18 10:41 52.18423 4.27799 32568 ft 426 kts 258°
2026-04-18 10:41 52.17791 4.23096 32891 ft 424 kts 252°
2026-04-18 10:41 52.16897 4.18578 33185 ft 423 kts 248°
2026-04-18 10:41 52.15869 4.14197 33523 ft 423 kts 246°
2026-04-18 10:42 52.14748 4.09735 33844 ft 423 kts 246°
2026-04-18 10:42 52.13650 4.05444 34152 ft 423 kts 246°
2026-04-18 10:42 52.12521 4.01017 34407 ft 423 kts 246°
2026-04-18 10:42 52.11398 3.96576 34632 ft 424 kts 246°
2026-04-18 10:43 52.10284 3.92134 34877 ft 425 kts 246°
2026-04-18 10:43 52.09166 3.87663 35017 ft 427 kts 246°
2026-04-18 10:43 52.08053 3.83205 35125 ft 430 kts 246°
2026-04-18 10:44 52.05791 3.74164 35206 ft 431 kts 246°
2026-04-18 10:44 52.03537 3.65188 35197 ft 426 kts 246°
2026-04-18 10:45 52.01307 3.56351 35207 ft 424 kts 246°
2026-04-18 10:45 51.98668 3.47782 35196 ft 423 kts 238°
2026-04-18 10:46 51.95301 3.40029 35233 ft 423 kts 234°
2026-04-18 10:46 51.91780 3.32327 35229 ft 425 kts 234°
2026-04-18 10:47 51.88288 3.24641 35231 ft 427 kts 234°
2026-04-18 10:47 51.84839 3.16768 35227 ft 428 kts 238°
2026-04-18 10:48 51.82049 3.08212 35229 ft 429 kts 243°
2026-04-18 10:48 51.79359 2.99608 35228 ft 429 kts 242°
2026-04-18 10:49 51.76651 2.91047 35211 ft 429 kts 242°
2026-04-18 10:49 51.73942 2.82510 35190 ft 429 kts 243°
2026-04-18 10:49 51.72568 2.78189 34975 ft 426 kts 242°
2026-04-18 10:50 51.71218 2.73946 34957 ft 424 kts 243°
2026-04-18 10:50 51.69130 2.65070 34936 ft 427 kts 252°
2026-04-18 10:51 51.67846 2.55658 34936 ft 432 kts 259°
2026-04-18 10:51 51.67041 2.46081 34934 ft 434 kts 259°
2026-04-18 10:52 51.66147 2.36461 34936 ft 435 kts 259°
2026-04-18 10:52 51.65232 2.26866 34924 ft 435 kts 259°
2026-04-18 10:53 51.64320 2.17275 34850 ft 430 kts 259°
2026-04-18 10:53 51.63864 2.12505 34584 ft 430 kts 259°
2026-04-18 10:53 51.63415 2.07737 34266 ft 429 kts 259°
2026-04-18 10:53 51.62990 2.03004 33672 ft 424 kts 259°
2026-04-18 10:54 51.62574 1.98349 32842 ft 425 kts 259°
2026-04-18 10:54 51.62145 1.93631 31984 ft 426 kts 259°
2026-04-18 10:54 51.61567 1.88947 31087 ft 427 kts 252°
2026-04-18 10:54 51.60468 1.84500 30370 ft 425 kts 244°
2026-04-18 10:55 51.59092 1.80395 29804 ft 419 kts 240°
2026-04-18 10:55 51.57448 1.76556 29172 ft 414 kts 233°
2026-04-18 10:55 51.55567 1.73058 28516 ft 411 kts 230°
2026-04-18 10:55 51.53629 1.69681 27899 ft 407 kts 230°
2026-04-18 10:56 51.51744 1.66350 27249 ft 403 kts 230°
2026-04-18 10:56 51.49887 1.62987 26601 ft 400 kts 232°
2026-04-18 10:56 51.48361 1.59285 25947 ft 395 kts 246°
2026-04-18 10:56 51.47458 1.55201 25268 ft 391 kts 252°
2026-04-18 10:57 51.46581 1.51070 24609 ft 391 kts 250°
2026-04-18 10:57 51.45644 1.46969 24033 ft 389 kts 250°